| time (UTC) | temp F | wind direction | speed MPH | gust MPH | rain 1hr in | rain 24hr in | rain mn in | humidity % | barometer mb |
| 20260509110504 | 68 | 13 | 3.0 | 10.0 | 0.00 | 0.00 | 0.00 | 54 | 1016.9 |
| 20260509110005 | 68 | 23 | 5.0 | 9.0 | 0.00 | 0.00 | 0.00 | 55 | 1016.9 |
| 20260509105504 | 68 | 14 | 2.0 | 9.0 | 0.00 | 0.00 | 0.00 | 55 | 1017.1 |
| 20260509104504 | 68 | 24 | 3.0 | 7.0 | 0.00 | 0.00 | 0.00 | 56 | 1017.1 |
| 20260509103504 | 68 | 349 | 4.0 | 6.0 | 0.00 | 0.00 | 0.00 | 58 | 1017.2 |
| 20260509103004 | 67 | 22 | 3.0 | 9.0 | 0.00 | 0.00 | 0.00 | 58 | 1017.3 |
| 20260509102504 | 67 | 81 | 2.0 | 9.0 | 0.00 | 0.00 | 0.00 | 58 | 1017.3 |
| 20260509101505 | 67 | 131 | 3.0 | 6.0 | 0.00 | 0.00 | 0.00 | 59 | 1017.2 |
| 20260509101004 | 67 | 46 | 2.0 | 5.0 | 0.00 | 0.00 | 0.00 | 60 | 1017.3 |
| 20260509095504 | 66 | 60 | 1.0 | 7.0 | 0.00 | 0.00 | 0.00 | 62 | 1017.4 |
| 20260509095004 | 66 | 43 | 3.0 | 7.0 | 0.00 | 0.00 | 0.00 | 61 | 1017.5 |
| 20260509094504 | 65 | 318 | 3.0 | 6.0 | 0.00 | 0.00 | 0.00 | 63 | 1017.4 |
| 20260509094005 | 65 | 345 | 3.0 | 5.0 | 0.00 | 0.00 | 0.00 | 64 | 1017.4 |
| 20260509093504 | 64 | 19 | 2.0 | 7.0 | 0.00 | 0.00 | 0.00 | 63 | 1017.4 |
| 20260509092004 | 63 | 99 | 2.0 | 8.0 | 0.00 | 0.00 | 0.00 | 63 | 1017.4 |
| 20260509091004 | 62 | 68 | 2.0 | 7.0 | 0.00 | 0.00 | 0.00 | 64 | 1017.4 |
| 20260509090504 | 62 | 94 | 2.0 | 6.0 | 0.00 | 0.00 | 0.00 | 66 | 1017.5 |
| 20260509090010 | 61 | 99 | 3.0 | 6.0 | 0.00 | 0.00 | 0.00 | 65 | 1017.5 |
| 20260509085504 | 61 | 128 | 3.0 | 6.0 | 0.00 | 0.00 | 0.00 | 66 | 1017.6 |
| 20260509085004 | 61 | 106 | 3.0 | 5.0 | 0.00 | 0.00 | 0.00 | 66 | 1017.6 |
| 20260509084504 | 60 | 114 | 1.0 | 7.0 | 0.00 | 0.00 | 0.00 | 68 | 1017.6 |
| 20260509084004 | 60 | 102 | 2.0 | 7.0 | 0.00 | 0.00 | 0.00 | 68 | 1017.5 |
| 20260509082504 | 59 | 80 | 2.0 | 5.0 | 0.00 | 0.00 | 0.00 | 69 | 1017.6 |
| 20260509082004 | 59 | 57 | 2.0 | 5.0 | 0.00 | 0.00 | 0.00 | 69 | 1017.6 |
| 20260509080004 | 58 | 43 | 2.0 | 6.0 | 0.00 | 0.00 | 0.00 | 70 | 1017.6 |
| 20260509075004 | 57 | 44 | 2.0 | 5.0 | 0.00 | 0.00 | 0.00 | 72 | 1017.7 |
| 20260509074504 | 57 | 84 | 3.0 | 5.0 | 0.00 | 0.00 | 0.00 | 72 | 1017.6 |
| 20260509073504 | 56 | 28 | 2.0 | 5.0 | 0.00 | 0.00 | 0.00 | 72 | 1017.6 |
| 20260509073005 | 56 | 19 | 2.0 | 5.0 | 0.00 | 0.00 | 0.00 | 73 | 1017.6 |
| 20260509072504 | 56 | 355 | 3.0 | 5.0 | 0.00 | 0.00 | 0.00 | 73 | 1017.6 |
| 20260509072005 | 56 | 1 | 2.0 | 3.0 | 0.00 | 0.00 | 0.00 | 74 | 1017.5 |
| 20260509071504 | 55 | 1 | 2.0 | 3.0 | 0.00 | 0.00 | 0.00 | 74 | 1017.5 |
| 20260509071004 | 55 | 0 | 2.0 | 5.0 | 0.00 | 0.00 | 0.00 | 74 | 1017.5 |
| 20260509070005 | 54 | 49 | 2.0 | 6.0 | 0.00 | 0.00 | 0.00 | 74 | 1017.5 |
| 20260509064004 | 53 | 19 | 3.0 | 5.0 | 0.00 | 0.00 | 0.00 | 75 | 1017.4 |
| 20260509063504 | 53 | 13 | 2.0 | 7.0 | 0.00 | 0.00 | 0.00 | 76 | 1017.4 |
| 20260509063004 | 52 | 40 | 1.0 | 7.0 | 0.00 | 0.00 | 0.00 | 76 | 1017.4 |
| 20260509061505 | 51 | 43 | 2.0 | 7.0 | 0.00 | 0.00 | 0.00 | 77 | 1017.3 |
| 20260509061004 | 51 | 31 | 2.0 | 5.0 | 0.00 | 0.00 | 0.00 | 78 | 1017.3 |
| 20260509060505 | 51 | 36 | 2.0 | 3.0 | 0.00 | 0.00 | 0.00 | 78 | 1017.2 |
| 20260509060005 | 51 | 28 | 1.0 | 3.0 | 0.00 | 0.00 | 0.00 | 78 | 1017.2 |
| 20260509055004 | 50 | 63 | 0.0 | 1.0 | 0.00 | 0.00 | 0.00 | 78 | 1017.2 |
| 20260509054504 | 50 | 63 | 0.0 | 1.0 | 0.00 | 0.00 | 0.00 | 78 | 1017.2 |
| 20260509052004 | 51 | 149 | 0.0 | 2.0 | 0.00 | 0.00 | 0.00 | 75 | 1017.0 |
| 20260509050004 | 51 | 12 | 0.0 | 0.0 | 0.00 | 0.00 | 0.00 | 75 | 1016.7 |
| 20260509044504 | 51 | 30 | 1.0 | 2.0 | 0.00 | 0.00 | 0.00 | 74 | 1016.7 |
| 20260509044004 | 52 | 30 | 0.0 | 3.0 | 0.00 | 0.00 | 0.00 | 74 | 1016.7 |
| 20260509042004 | 52 | 34 | 2.0 | 3.0 | 0.00 | 0.00 | 0.00 | 73 | 1016.8 |
| 20260509040504 | 52 | 67 | 1.0 | 3.0 | 0.00 | 0.00 | 0.00 | 73 | 1016.9 |
| 20260509035504 | 52 | 12 | 2.0 | 3.0 | 0.00 | 0.00 | 0.00 | 74 | 1016.7 |
| 20260509035004 | 52 | 38 | 1.0 | 2.0 | 0.00 | 0.00 | 0.00 | 74 | 1016.8 |
| 20260509034004 | 52 | 5 | 0.0 | 2.0 | 0.00 | 0.00 | 0.00 | 73 | 1016.9 |
| 20260509033504 | 53 | 5 | 1.0 | 2.0 | 0.00 | 0.00 | 0.00 | 73 | 1016.9 |
| 20260509033004 | 53 | 5 | 0.0 | 3.0 | 0.00 | 0.00 | 0.00 | 73 | 1016.9 |
| 20260509032504 | 53 | 5 | 1.0 | 3.0 | 0.00 | 0.01 | 0.00 | 73 | 1016.9 |
| 20260509031503 | 53 | 23 | 2.0 | 3.0 | 0.00 | 0.01 | 0.00 | 73 | 1016.9 |
| 20260509031005 | 53 | 350 | 0.0 | 3.0 | 0.00 | 0.01 | 0.00 | 72 | 1017.0 |
| 20260509025504 | 53 | 63 | 0.0 | 2.0 | 0.00 | 0.01 | 0.00 | 72 | 1016.9 |
| 20260509023504 | 54 | 35 | 2.0 | 3.0 | 0.00 | 0.01 | 0.00 | 72 | 1016.9 |
| 20260509023004 | 54 | 42 | 2.0 | 3.0 | 0.00 | 0.01 | 0.00 | 72 | 1017.0 |
| 20260509021003 | 54 | 21 | 2.0 | 6.0 | 0.00 | 0.01 | 0.00 | 73 | 1017.0 |
| 20260509013504 | 53 | 54 | 0.0 | 2.0 | 0.00 | 0.01 | 0.00 | 74 | 1017.2 |
| 20260509012504 | 53 | 43 | 0.0 | 3.0 | 0.00 | 0.01 | 0.00 | 73 | 1017.2 |
| 20260509005503 | 53 | 328 | 2.0 | 3.0 | 0.00 | 0.01 | 0.00 | 72 | 1017.1 |
| 20260509005004 | 53 | 351 | 2.0 | 3.0 | 0.00 | 0.01 | 0.00 | 72 | 1017.0 |
| 20260509002004 | 53 | 51 | 0.0 | 1.0 | 0.00 | 0.01 | 0.00 | 71 | 1017.2 |
| 20260509001504 | 54 | 51 | 0.0 | 0.0 | 0.00 | 0.01 | 0.00 | 70 | 1017.2 |
| 20260509000504 | 54 | 51 | 0.0 | 2.0 | 0.00 | 0.01 | 0.00 | 69 | 1017.2 |
| 20260508234004 | 55 | 43 | 1.0 | 3.0 | 0.00 | 0.01 | 0.00 | 69 | 1017.2 |
| 20260508233504 | 55 | 55 | 2.0 | 3.0 | 0.00 | 0.01 | 0.00 | 69 | 1017.2 |
| 20260508232504 | 55 | 46 | 1.0 | 3.0 | 0.00 | 0.01 | 0.00 | 69 | 1017.2 |
| 20260508231504 | 55 | 35 | 2.0 | 3.0 | 0.00 | 0.01 | 0.00 | 69 | 1017.2 |
| 20260508231004 | 55 | 25 | 1.0 | 3.0 | 0.00 | 0.01 | 0.00 | 69 | 1017.2 |
| 20260508230004 | 55 | 26 | 1.0 | 3.0 | 0.00 | 0.01 | 0.00 | 69 | 1017.2 |
| 20260508225004 | 55 | 51 | 1.0 | 3.0 | 0.00 | 0.01 | 0.01 | 69 | 1017.3 |
| 20260508224004 | 55 | 36 | 1.0 | 2.0 | 0.00 | 0.01 | 0.01 | 70 | 1017.2 |
| 20260508223004 | 55 | 37 | 1.0 | 3.0 | 0.00 | 0.01 | 0.01 | 70 | 1017.2 |
| 20260508221504 | 55 | 355 | 1.0 | 3.0 | 0.00 | 0.01 | 0.01 | 70 | 1017.2 |
| 20260508220504 | 55 | 30 | 0.0 | 2.0 | 0.00 | 0.01 | 0.01 | 70 | 1017.2 |
| 20260508220004 | 55 | 30 | 1.0 | 2.0 | 0.00 | 0.01 | 0.01 | 69 | 1017.1 |
| 20260508215004 | 56 | 47 | 1.0 | 2.0 | 0.00 | 0.01 | 0.01 | 69 | 1017.2 |
| 20260508214005 | 56 | 47 | 1.0 | 3.0 | 0.00 | 0.01 | 0.01 | 68 | 1017.2 |
| 20260508212504 | 56 | 9 | 1.0 | 2.0 | 0.00 | 0.01 | 0.01 | 68 | 1017.1 |
| 20260508212004 | 56 | 33 | 1.0 | 3.0 | 0.00 | 0.01 | 0.01 | 67 | 1017.1 |
| 20260508211004 | 56 | 43 | 1.0 | 2.0 | 0.00 | 0.01 | 0.01 | 67 | 1017.2 |
| 20260508210504 | 57 | 48 | 1.0 | 2.0 | 0.00 | 0.01 | 0.01 | 66 | 1017.2 |
| 20260508205005 | 57 | 28 | 1.0 | 3.0 | 0.00 | 0.01 | 0.01 | 65 | 1017.1 |
| 20260508204504 | 57 | 22 | 1.0 | 3.0 | 0.00 | 0.01 | 0.01 | 66 | 1017.1 |
| 20260508201504 | 58 | 99 | 1.0 | 3.0 | 0.00 | 0.01 | 0.01 | 62 | 1016.8 |
| 20260508200504 | 59 | 130 | 2.0 | 5.0 | 0.00 | 0.01 | 0.01 | 62 | 1016.7 |
| 20260508195504 | 59 | 123 | 1.0 | 5.0 | 0.00 | 0.01 | 0.01 | 61 | 1016.6 |
| 20260508195005 | 59 | 91 | 1.0 | 5.0 | 0.00 | 0.01 | 0.01 | 61 | 1016.6 |
| 20260508194504 | 60 | 105 | 1.0 | 5.0 | 0.00 | 0.01 | 0.01 | 61 | 1016.5 |
| 20260508194004 | 60 | 120 | 2.0 | 3.0 | 0.00 | 0.01 | 0.01 | 61 | 1016.4 |
| 20260508193504 | 60 | 134 | 2.0 | 3.0 | 0.00 | 0.01 | 0.01 | 60 | 1016.4 |
| 20260508193004 | 60 | 145 | 1.0 | 3.0 | 0.00 | 0.01 | 0.01 | 61 | 1016.3 |
| 20260508191003 | 61 | 99 | 3.0 | 8.0 | 0.00 | 0.01 | 0.01 | 58 | 1016.2 |
| 20260508190504 | 61 | 120 | 3.0 | 8.0 | 0.00 | 0.01 | 0.01 | 59 | 1016.2 |
| 20260508185504 | 62 | 120 | 3.0 | 8.0 | 0.00 | 0.01 | 0.01 | 59 | 1016.1 |
| 20260508184504 | 62 | 150 | 4.0 | 8.0 | 0.00 | 0.01 | 0.01 | 59 | 1016.1 |
| 20260508182504 | 63 | 143 | 3.0 | 12.0 | 0.00 | 0.01 | 0.01 | 59 | 1016.0 |
| 20260508182004 | 63 | 120 | 6.0 | 12.0 | 0.00 | 0.01 | 0.01 | 58 | 1015.9 |
| 20260508181504 | 63 | 114 | 5.0 | 12.0 | 0.00 | 0.01 | 0.01 | 59 | 1015.7 |
| 20260508181004 | 63 | 122 | 5.0 | 12.0 | 0.00 | 0.01 | 0.01 | 60 | 1015.8 |
| 20260508180004 | 64 | 121 | 5.0 | 12.0 | 0.00 | 0.01 | 0.01 | 59 | 1015.7 |
| 20260508175504 | 64 | 121 | 4.0 | 10.0 | 0.00 | 0.01 | 0.01 | 59 | 1015.6 |
| 20260508174504 | 64 | 130 | 6.0 | 13.0 | 0.00 | 0.01 | 0.01 | 59 | 1015.4 |
| 20260508173504 | 65 | 120 | 5.0 | 12.0 | 0.00 | 0.01 | 0.01 | 58 | 1015.3 |
| 20260508173004 | 65 | 105 | 5.0 | 12.0 | 0.00 | 0.01 | 0.01 | 58 | 1015.3 |
| 20260508172504 | 65 | 155 | 5.0 | 12.0 | 0.00 | 0.01 | 0.01 | 58 | 1015.2 |
| 20260508172004 | 65 | 137 | 5.0 | 10.0 | 0.00 | 0.01 | 0.01 | 57 | 1015.2 |
| 20260508171503 | 65 | 110 | 4.0 | 10.0 | 0.00 | 0.01 | 0.01 | 58 | 1015.1 |
| 20260508171004 | 65 | 180 | 5.0 | 10.0 | 0.00 | 0.01 | 0.01 | 57 | 1015.2 |
| 20260508170005 | 65 | 191 | 5.0 | 12.0 | 0.00 | 0.01 | 0.01 | 56 | 1015.1 |
| 20260508165004 | 66 | 175 | 6.0 | 12.0 | 0.00 | 0.01 | 0.01 | 55 | 1015.0 |
| 20260508164004 | 66 | 125 | 5.0 | 12.0 | 0.00 | 0.01 | 0.01 | 54 | 1015.0 |
| 20260508163505 | 66 | 147 | 6.0 | 10.0 | 0.00 | 0.01 | 0.01 | 53 | 1015.0 |
| 20260508162504 | 66 | 154 | 6.0 | 12.0 | 0.00 | 0.01 | 0.01 | 54 | 1015.0 |
| 20260508160504 | 67 | 174 | 5.0 | 12.0 | 0.00 | 0.01 | 0.01 | 54 | 1015.0 |
| 20260508160005 | 67 | 189 | 4.0 | 10.0 | 0.00 | 0.01 | 0.01 | 54 | 1015.0 |
| 20260508154504 | 67 | 144 | 6.0 | 12.0 | 0.00 | 0.01 | 0.01 | 54 | 1015.1 |
| 20260508154004 | 67 | 167 | 6.0 | 12.0 | 0.00 | 0.01 | 0.01 | 53 | 1015.1 |
| 20260508153504 | 68 | 156 | 5.0 | 12.0 | 0.00 | 0.01 | 0.01 | 52 | 1015.1 |
| 20260508153005 | 68 | 170 | 7.0 | 12.0 | 0.00 | 0.01 | 0.01 | 52 | 1015.2 |
| 20260508151004 | 68 | 164 | 3.0 | 12.0 | 0.00 | 0.01 | 0.01 | 47 | 1015.1 |
| 20260508150504 | 68 | 106 | 6.0 | 10.0 | 0.00 | 0.01 | 0.01 | 47 | 1015.1 |
| 20260508145004 | 68 | 159 | 6.0 | 10.0 | 0.00 | 0.01 | 0.01 | 49 | 1015.1 |
| 20260508144504 | 68 | 176 | 5.0 | 13.0 | 0.00 | 0.01 | 0.01 | 47 | 1015.1 |
| 20260508144004 | 69 | 161 | 7.0 | 13.0 | 0.00 | 0.01 | 0.01 | 49 | 1015.2 |
| 20260508142504 | 68 | 181 | 6.0 | 13.0 | 0.00 | 0.01 | 0.01 | 46 | 1015.2 |
| 20260508142005 | 68 | 144 | 8.0 | 13.0 | 0.00 | 0.01 | 0.01 | 43 | 1015.2 |
| 20260508141005 | 68 | 128 | 5.0 | 12.0 | 0.00 | 0.01 | 0.01 | 47 | 1015.1 |
| 20260508135005 | 69 | 169 | 7.0 | 13.0 | 0.00 | 0.01 | 0.01 | 51 | 1015.1 |
| 20260508134506 | 69 | 166 | 6.0 | 13.0 | 0.00 | 0.01 | 0.01 | 51 | 1015.1 |
| 20260508131504 | 69 | 180 | 5.0 | 14.0 | 0.00 | 0.01 | 0.01 | 52 | 1015.1 |
| 20260508130504 | 68 | 220 | 5.0 | 13.0 | 0.00 | 0.01 | 0.01 | 53 | 1015.0 |
| 20260508125504 | 68 | 187 | 7.0 | 13.0 | 0.00 | 0.01 | 0.01 | 51 | 1015.0 |
| 20260508125004 | 67 | 178 | 6.0 | 12.0 | 0.00 | 0.01 | 0.01 | 52 | 1015.1 |
| 20260508124504 | 67 | 186 | 6.0 | 12.0 | 0.00 | 0.01 | 0.01 | 54 | 1015.0 |
| 20260508123505 | 66 | 147 | 9.0 | 13.0 | 0.00 | 0.01 | 0.01 | 54 | 1015.0 |
| 20260508123005 | 66 | 157 | 7.0 | 15.0 | 0.00 | 0.01 | 0.01 | 54 | 1015.0 |
| 20260508122504 | 66 | 157 | 7.0 | 15.0 | 0.00 | 0.01 | 0.01 | 55 | 1015.0 |
| 20260508121004 | 65 | 107 | 3.0 | 12.0 | 0.00 | 0.01 | 0.01 | 62 | 1014.9 |
| 20260508120504 | 65 | 155 | 6.0 | 12.0 | 0.00 | 0.01 | 0.01 | 63 | 1015.0 |
| 20260508114005 | 65 | 143 | 6.0 | 16.0 | 0.00 | 0.01 | 0.01 | 60 | 1015.1 |
| 20260508111504 | 65 | 175 | 6.0 | 16.0 | 0.00 | 0.01 | 0.01 | 63 | 1015.0 |